Location: Mason
(37.5237°N, 89.2543°W)
Time: 08:21:53
(UTC+00:00)

CZ-2C R/B - Pass Details

Date: 24 January 2021
Orbit: 785 x 870 km, 98.2° (Epoch: 08 March)

Event Time Altitude Azimuth Distance (km) Brightness Sun altitude
Rises 12:32:51 0° 172° (S) 3,270 6.2 -7.0°
Reaches altitude 10° 12:35:10 10° 174° (S) 2,352 5.4 -6.6°
Maximum altitude 12:40:20 70° 258° (WSW) 853 2.6 -5.6°
Drops below altitude 10° 12:45:39 10° 343° (NNW) 2,414 4.7 -4.6°
Sets 12:48:03 0° 345° (NNW) 3,363 5.5 -4.2°
